Union Aéronautique de la Côte d'Azur

Union Aéronautique de la Côte d'Azur
UACA
Approuvé A.T.O. EASA – N°FR.ATO.0108

UNION des aéroclubs
Cannes “Ailes d’Azur”, Nice “Côte d’Azur”, Grasse “St Exupery”, ACCA “Francis Séverac”

Un cache-pitot se trouve à bord de chaque avion. Pensez à le mettre en place à la fin de chaque vol !

Avant de quitter l'avion, vérifiez que vous n'emportez pas la checklist

Un vol ne s'entreprend qu'avec un pare-brise parfaitement propre, il en va de votre sécurité, et de celle des autres

Après chaque vol, merci de mettre en place les pares-soleil!


Météo à Cannes:
METAR
LFMD 120400Z AUTO 35004KT 310V010 CAVOK 20/18 Q1015 NOSIG =
LFMD 120200Z 1203/1303 VRB05KT CAVOK BECMG 1209/1211 16005KT BECMG 1301/1303 01005KT

TAF
LFMD 120200Z 1203/1303 VRB05KT CAVOK BECMG 1209/1211 16005KT BECMG 1301/1303 01005KT =

SR / SS: 04:31 / 18:43 UTC (LFMD 2020-08-12)